RADUGA-1 1 [-]

Last updated on July 6, 2021, 3:35 p.m. UTC

1 20083U 89048A   21186.98333377  .00000019  00000-0  00000+0 0  9992
2 20083  14.5642 348.5382 0023225 100.2978  76.1291  0.98707080113427
UTC
Height (km)
Latitude
Longitude
Inclination
Orbital Period
UTC large
Height (km)
Speed (km/s)
/
Latitude / Longitude
Inclination (degrees)
Orbital Period (minutes)
Azimuth
Elevation
Range (km)
Doppler Factor
iOS Compass Heading
iOS Angle